Simultaneous Nadir Overpasses (SNOs) Predictions

Prediction of SNOs between AQUA and METOP-B Satellite Orbit:

Table of predicted SNOs for the next 14.0 days since TLE Epoch: 9/13/2014
Index Date (AQUA) Time (AQUA) Lat,Lon (AQUA) SZA (AQUA ) Date (METOP-B) Time (METOP-B) Lat,Lon (METOP-B) SZA (METOP-B ) Distance(km) Time Diff (sec)
1 09/13/2014 06:33:22 -73.76,-103.94 110.09 09/13/2014 06:32:39 -73.76,-104.05 110.07 3.44 43
2 09/13/2014 07:22:51 73.82, 63.55 70.00 09/13/2014 07:23:17 73.85, 63.49 70.03 3.05 26
3 09/16/2014 02:07:34 -73.78, -37.54 108.98 09/16/2014 02:06:58 -73.79, -37.57 108.97 1.24 36
4 09/16/2014 02:57:03 73.86, 129.93 71.11 09/16/2014 02:57:36 73.88, 129.96 71.13 2.52 33
5 09/18/2014 21:41:46 -73.81, 28.85 107.87 09/18/2014 21:41:18 -73.81, 28.88 107.87 1.12 28
6 09/18/2014 22:31:15 73.89,-163.69 72.23 09/18/2014 22:31:56 73.90,-163.57 72.23 3.77 41
7 09/21/2014 16:26:17 73.08, -70.80 72.44 09/21/2014 16:25:12 73.04, -73.78 72.48 96.62 65
8 09/21/2014 17:15:57 -73.83, 95.25 106.76 09/21/2014 17:15:38 -73.83, 95.33 106.77 2.51 19
9 09/21/2014 18:05:25 73.86, -97.18 73.29 09/21/2014 18:06:17 73.87, -97.24 73.29 1.94 52
10 09/24/2014 12:00:34 73.53, -5.27 74.00 09/24/2014 11:59:23 73.45, -6.46 73.96 38.68 71
11 09/24/2014 12:50:05 -73.81, 161.77 105.70 09/24/2014 12:49:57 -73.83, 161.76 105.67 3.15 8
12 09/24/2014 13:39:34 73.89, -30.79 74.41 09/24/2014 13:40:36 73.88, -30.81 74.39 2.21 62




NCC Satellite Simultaneous Nadir Overpasses (SNOs) Prediction Service
